Weather in Kalmar

Sweden     56°41′07″N   16°20′28″E
temp.,
°C
wind,
m/s
gust,
m/s
humid.,
%
clouds,
%
prec.,
mm/h
press.,
hPa
HPBL,
m
15 august, mon
mon1523:00+17nne248852 0.0 101380
02:00+18ne24925 0.0 101285
05:00+18ne25976 0.0 101197
08:00+22e367936 0.0 1011329
11:00+26ese46585 0.0 1011826
14:00+27se46521 0.0 1010932
17:00+26ese46585 0.0 1010684
20:00+21e248151 0.0 1010136
16 august, tue
tue1623:00+19e3896100 2.1 1010264
02:00+19e229552 2.1 100929
05:00+18e279791 1.6 1008169
08:00+21se278851 2.1 1008287
11:00+26sse476081 0.0 1009682
14:00+27sse58545 0.0 1009858
17:00+26s585524 0.0 1009874
20:00+22s37795 0.0 1010245
17 august, wed
wed1723:00+18ssw37914 0.0 1012149
02:00+17w2286100 0.0 101226
05:00+17w227811 0.0 101216
08:00+22wnw12586 0.0 1013149
11:00+29sse124053 0.0 10131202
14:00+29se443896 0.0 10131592
17:00+27sse444350 0.0 1014616
20:00+22s2362100 0.0 101459
18 august, thu
thu1823:00+19wsw1169100 0.0 101511
02:00+19ese1168100 0.0 101511
05:00+18ne1172100 0.0 101511
08:00+22ne2572100 0.0 1015225
11:00+25ene3562100 0.0 1015590
14:00+27e345222 0.0 1015925
17:00+26e45583 0.1 1014748
20:00+21ene24865 0.2 1014105
19 august, fri
fri1923:00+18e229686 0.1 101439
02:00+18ene119537 0.1 101311
05:00+18ne12944 0.0 101315
08:00+23ene24745 0.0 1013206
11:00+27ese45535 0.0 1013894
14:00+28se45505 0.0 10131058
17:00+27ese45552 0.0 1012695
20:00+21e24800 0.0 1011112